Location: Sankt+Gallen
(47.4262°N, 9.3755°E)
Time: 04:30:38
(UTC+01:00)

Tiangong - Visible Passes

Search period start: 18 February 2026 00:00
Search period end: 28 February 2026 00:00
Orbit: 385 x 391 km, 41.5° (Epoch: 17 February)

Date Brightness Start Highest point End Pass type
(mag) Time Alt. Az. Time Alt. Az. Time Alt. Az.
18 Feb 0.3 19:52:48 10° WSW 19:54:50 16° SSW 19:54:50 16° SSW visible
19 Feb 0.0 18:54:01 10° WSW 18:56:30 21° SSW 18:58:56 10° SE visible
20 Feb 0.7 19:33:18 10° SW 19:34:18 11° SSW 19:35:18 10° S visible
21 Feb 0.6 18:33:53 10° WSW 18:35:53 15° SSW 18:37:52 10° SSE visible
